Regional Weather Roundup
Issued by NWS

Home | Current Version | Previous Version | Text Only | Print | Product List | Glossary Off
Versions: 1 2 3 4 5 6 7 8 9 10 11 12 13 14 15 16 17 18 19 20 21 22 23 24 25 26 27 28 29 30 31 32 33 34 35 36 37 38 39 40 41 42 43 44 45 46 47 48 49 50

000
ASUS43 KLSX 232110
RWRMO

WEATHER SUMMARY FOR MISSOURI
NATIONAL WEATHER SERVICE SPRINGFIELD MO
300 PM CST MON JAN 23 2017

NOTE: "FAIR" INDICATES FEW OR NO CLOUDS BELOW 12,000 FEET WITH NO
       SIGNIFICANT WEATHER AND/OR OBSTRUCTIONS TO VISIBILITY.
       CURRENT SKY AND/OR WEATHER CONDITIONS ARE NOT AVAILABLE FOR
       CHILLICOTHE AND FARMINGTON.

MOZ001>031-035>038-043-044-053-054-232200-
...NORTHERN AND WESTERN MISSOURI...

CITY           SKY/WX    TMP DP  RH WIND       PRES   REMARKS
KANSAS CTY INT PTSUNNY   39  30  70 SE3       29.82F
KANSAS C DTWN  MOSUNNY   42  33  70 CALM      29.84F
LEE`S SUMMIT   SUNNY     42  33  70 CALM      29.84F
ST JOSEPH      SUNNY     41  33  73 N3        29.84F
CHILLICOTHE      N/A     36  30  79 NE6       29.86F
KIRKSVILLE     CLOUDY    33  30  88 NW5       29.86S WCI  29

$$
MOZ066>068-077>081-088>096-101>105-232200-
...SOUTHWEST MISSOURI...

CITY           SKY/WX    TMP DP  RH WIND       PRES   REMARKS
SPRINGFIELD    SUNNY     50  32  50 NW6       29.83F
JOPLIN         SUNNY     51  34  52 CALM      29.84F
BRANSON        SUNNY     48  36  61 W6        29.85F

$$
MOZ032>034-039>042-045>050-055>058-069>072-232200-
...CENTRAL MISSOURI...

CITY           SKY/WX    TMP DP  RH WIND       PRES   REMARKS
COLUMBIA       CLOUDY    38  33  82 NW13      29.85F WCI  30
JEFFERSON CITY CLOUDY    41  34  76 NW7       29.86F
ROLLA          CLOUDY    42  34  73 NW7       29.82F
SEDALIA        CLOUDY    40  33  76 CALM      29.87F
WHITEMAN AFB   MOSUNNY   39  36  90 VRB3      29.84F
WARRENSBURG    CLOUDY    37  32  81 CALM      29.85F
OSAGE BEACH    CLOUDY    44  35  70 NW3       29.86S

$$
MOZ051-052-059>065-232200-
...EAST CENTRAL MISSOURI...

CITY           SKY/WX    TMP DP  RH WIND       PRES   REMARKS
ST LOUIS INTL  CLOUDY    43  34  70 NW12      29.83R
SPIRIT OF STL  CLOUDY    43  35  73 NW12      29.84R
ST CHARLES     CLOUDY    43  35  73 W13       29.83R

$$
MOZ072>076-082>087-097>100-106>115-232200-
...SOUTH CENTRAL AND SOUTHEAST MISSOURI...

CITY           SKY/WX    TMP DP  RH WIND       PRES   REMARKS
CAPE GIRARDEAU CLOUDY    45  35  68 N13G22    29.80S
FARMINGTON     CLOUDY    42  34  73 NW12G17   29.82R
POPLAR BLUFF   SUNNY     53  38  56 N12       29.78S
WEST PLAINS    MOSUNNY   52  34  50 NW10      29.83S

$$




USA.gov is the U.S. government's official web portal to all federal, state and local government web resources and services.